FW8074 Weather Reports


Display with metric or nautical units.
time (UTC)temp
F
wind
direction
speed
MPH
gust
MPH
rain 1hr
in
rain 24hr
in
rain mn
in
humidity
%
barometer
mb
20260510154557 77 0 0.0 4.0 0.00 0.00 0.00 70 1012.7
20260510153057 78 227 2.0 8.0 0.00 0.00 0.00 68 1012.7
20260510151603 76 117 1.0 3.0 0.00 0.00 0.00 71 1012.8
20260510150108 76 256 2.0 4.0 0.00 0.00 0.00 73 1012.7
20260510144606 76 93 1.0 5.0 0.00 0.00 0.00 74 1012.4
20260510143109 75 86 0.0 4.0 0.00 0.00 0.00 76 1012.2
20260510141556 74 356 2.0 5.0 0.00 0.00 0.00 77 1012.3
20260510140056 74 0 0.0 4.0 0.00 0.00 0.00 78 1012.4
20260510134556 72 84 1.0 3.0 0.00 0.00 0.00 81 1012.2
20260510133058 70 315 1.0 3.0 0.00 0.00 0.00 85 1012.3
20260510131558 70 0 0.0 3.0 0.00 0.00 0.00 86 1012.2
20260510130105 69 0 0.0 2.0 0.00 0.00 0.00 91 1012.1
20260510124603 67 0 0.0 0.0 0.00 0.00 0.00 93 1012.2
20260510123058 66 0 0.0 2.0 0.00 0.00 0.00 96 1012.2
20260510121557 65 0 0.0 2.0 0.00 0.00 0.00 99 1012.0
20260510114557 62 0 0.0 0.0 0.00 0.00 0.00 99 1011.7
20260510113115 62 0 0.0 0.0 0.00 0.00 0.00 99 1011.5
20260510111555 61 0 0.0 0.0 0.00 0.00 0.00 99 1011.2
20260510110054 61 0 0.0 0.0 0.00 0.00 0.00 99 1010.9
20260510104558 61 0 0.0 0.0 0.00 0.00 0.00 98 1010.9
20260510103100 61 0 0.0 0.0 0.00 0.00 0.00 98 1010.8
20260510101559 61 0 0.0 1.0 0.00 0.00 0.00 99 1010.6
20260510100110 61 0 0.0 0.0 0.00 0.00 0.00 98 1010.1
20260510094605 61 0 0.0 0.0 0.00 0.00 0.00 98 1010.1
20260510093104 61 0 0.0 1.0 0.00 0.00 0.00 98 1010.0
20260510091604 61 0 0.0 0.0 0.00 0.00 0.00 98 1009.8
20260510090110 61 0 0.0 0.0 0.00 0.00 0.00 98 1009.8
20260510084604 61 0 0.0 0.0 0.00 0.00 0.00 98 1009.6
20260510083103 61 0 0.0 0.0 0.00 0.00 0.00 98 1009.5
20260510081554 61 0 0.0 0.0 0.00 0.00 0.00 98 1009.4
20260510080103 61 0 0.0 0.0 0.00 0.00 0.00 98 1009.4
20260510074554 61 0 0.0 0.0 0.00 0.00 0.00 98 1009.5
20260510073113 61 0 0.0 0.0 0.00 0.00 0.00 97 1009.5
20260510071556 61 0 0.0 0.0 0.00 0.00 0.00 97 1009.4
20260510064634 61 0 0.0 0.0 0.00 0.00 0.00 97 1009.4
20260510063056 61 0 0.0 0.0 0.00 0.00 0.00 97 1009.3
20260510061554 61 0 0.0 0.0 0.00 0.00 0.00 97 1009.6
20260510060058 62 0 0.0 0.0 0.00 0.00 0.00 97 1009.6
20260510054601 62 0 0.0 0.0 0.00 0.00 0.00 97 1009.5
20260510053056 62 0 0.0 0.0 0.00 0.00 0.00 97 1009.5
20260510051558 62 0 0.0 0.0 0.00 0.00 0.00 96 1009.7
20260510050058 62 0 0.0 0.0 0.00 0.00 0.00 96 1009.7
20260510044557 62 0 0.0 0.0 0.00 0.00 0.00 96 1009.7
20260510043058 63 0 0.0 0.0 0.00 0.00 0.00 96 1009.8
20260510041558 63 0 0.0 0.0 0.00 0.00 0.00 96 1009.4
20260510040058 63 0 0.0 0.0 0.00 0.00 0.00 95 1009.3
20260510034616 63 0 0.0 0.0 0.00 0.00 0.00 95 1009.4
20260510033059 64 0 0.0 0.0 0.00 0.00 0.00 95 1009.4
20260510031558 64 0 0.0 0.0 0.00 0.00 0.00 95 1009.5
20260510030059 64 0 0.0 0.0 0.00 0.00 0.00 94 1009.6
20260510024601 65 0 0.0 0.0 0.00 0.00 0.00 94 1009.7
20260510023057 65 0 0.0 0.0 0.00 0.00 0.00 93 1009.5
20260510021604 65 0 0.0 0.0 0.00 0.00 0.00 93 1009.4
20260510020058 66 0 0.0 0.0 0.00 0.00 0.00 92 1009.3
20260510014601 66 0 0.0 0.0 0.00 0.00 0.00 92 1009.2
20260510013117 67 0 0.0 0.0 0.00 0.00 0.00 91 1009.0
20260510011555 67 0 0.0 0.0 0.00 0.00 0.00 90 1008.7
20260510010056 68 0 0.0 0.0 0.00 0.00 0.00 89 1008.7
20260510004559 68 0 0.0 0.0 0.00 0.00 0.00 87 1008.2
20260510003106 69 0 0.0 0.0 0.00 0.00 0.00 86 1008.1
20260510001559 69 0 0.0 0.0 0.00 0.00 0.00 85 1007.6
20260510000127 70 0 0.0 0.0 0.00 0.00 0.00 83 1007.8
20260509234557 71 0 0.0 0.0 0.00 0.00 0.00 81 1007.6
20260509233058 72 0 0.0 0.0 0.00 0.00 0.00 80 1007.5
20260509231625 72 0 0.0 1.0 0.00 0.00 0.00 79 1007.4
20260509230109 73 289 0.0 1.0 0.00 0.00 0.00 78 1007.3
20260509224603 73 267 1.0 3.0 0.00 0.00 0.00 78 1007.3
20260509223103 74 284 1.0 3.0 0.00 0.00 0.00 77 1007.2
20260509221612 74 0 0.0 2.0 0.00 0.00 0.00 78 1007.3
20260509220057 74 283 2.0 5.0 0.00 0.00 0.00 76 1007.1
20260509214604 74 287 2.0 4.0 0.00 0.00 0.00 76 1007.2
20260509213058 74 299 2.0 6.0 0.00 0.00 0.00 75 1007.1
20260509211602 74 282 3.0 6.0 0.00 0.00 0.00 74 1007.0
20260509210057 74 261 2.0 5.0 0.00 0.00 0.00 75 1007.0
20260509204555 74 261 1.0 7.0 0.00 0.00 0.00 75 1006.9
20260509203056 74 280 4.0 8.0 0.00 0.00 0.00 74 1006.9
20260509201556 74 261 2.0 10.0 0.00 0.00 0.00 76 1007.0
20260509200109 75 258 2.0 4.0 0.00 0.00 0.00 75 1007.0
20260509194558 74 258 1.0 4.0 0.00 0.00 0.00 76 1007.2
20260509193058 73 282 2.0 6.0 0.00 0.00 0.00 77 1007.5
20260509191601 74 275 4.0 7.0 0.00 0.00 0.00 76 1007.9
20260509190057 74 292 3.0 8.0 0.00 0.00 0.00 76 1007.8
20260509184556 74 289 2.0 6.0 0.00 0.00 0.00 77 1007.6
20260509183109 73 286 2.0 7.0 0.00 0.00 0.00 77 1007.6
20260509181600 72 272 3.0 7.0 0.00 0.00 0.00 77 1007.9
20260509180103 72 279 3.0 6.0 0.00 0.00 0.00 77 1008.0
20260509174557 72 284 3.0 7.0 0.00 0.00 0.00 78 1007.9
20260509173100 72 247 2.0 4.0 0.00 0.00 0.00 79 1008.2
20260509171556 71 253 1.0 7.0 0.00 0.00 0.00 79 1008.4
20260509170057 71 278 3.0 7.0 0.00 0.00 0.00 80 1008.8
20260509164555 71 263 2.0 6.0 0.00 0.00 0.00 80 1008.7
20260509163101 71 263 3.0 7.0 0.00 0.00 0.00 80 1009.1
20260509161600 71 267 3.0 6.0 0.00 0.00 0.00 80 1009.2
20260509160055 71 205 3.0 7.0 0.00 0.00 0.00 81 1009.4